Location: Newark
(15.4608°S, 41.1635°W)
Time: 00:49:09
(UTC+00:00)

Transit 4A - All Passes

Search period start: 31 July 2021 00:00
Search period end: 10 August 2021 00:00
Orbit: 872 x 972 km, 66.8° (Epoch: 30 July)

Date Brightness Start Highest point End Pass type
(mag) Time Alt. Az. Time Alt. Az. Time Alt. Az.
31 Jul - 01:33:17 10° SW 01:38:55 37° WNW 01:44:24 10° N night (unlit)
31 Jul - 12:53:27 10° NNE 12:58:44 31° ENE 13:04:09 10° SE daylight
31 Jul - 14:39:56 10° WNW 14:44:55 25° WSW 14:50:01 10° S daylight
31 Jul - 23:56:27 10° S 00:02:04 34° ESE 00:07:30 10° NE night (unlit)
01 Aug - 01:43:29 10° WSW 01:48:03 22° WNW 01:52:33 10° NNW night (unlit)
01 Aug - 13:02:01 10° N 13:07:55 52° ENE 13:14:00 10° SSE daylight
01 Aug - 14:50:54 10° W 14:54:23 15° WSW 14:57:56 10° SSW daylight
02 Aug - 00:05:16 10° S 00:11:24 57° ESE 00:17:19 10° NE night (unlit)
02 Aug - 01:54:54 10° W 01:57:11 12° WNW 01:59:27 10° NW night (unlit)
02 Aug - 13:11:00 10° NNW 13:17:08 87° ENE 13:23:28 10° SSE daylight
03 Aug - 00:14:25 10° SSW 00:20:41 87° WNW 00:26:43 10° NNE night (unlit)
03 Aug - 11:38:11 10° NE 11:40:37 12° ENE 11:43:05 10° E daylight
03 Aug - 13:20:24 10° NW 13:26:25 58° WSW 13:32:37 10° S daylight
03 Aug - 22:40:01 10° SSE 22:43:26 15° ESE 22:46:48 10° E night (unlit)
04 Aug - 00:23:54 10° SW 00:29:54 52° WNW 00:35:43 10° N night (unlit)
04 Aug - 11:45:09 10° NNE 11:49:44 22° ENE 11:54:26 10° ESE daylight
04 Aug - 13:30:13 10° NW 13:35:45 35° WSW 13:41:28 10° S daylight
04 Aug - 22:47:53 10° S 22:52:54 25° ESE 22:57:47 10° ENE night (unlit)
05 Aug - 00:33:45 10° SW 00:39:04 31° WNW 00:44:16 10° NNW night (unlit)
05 Aug - 11:53:19 10° N 11:58:54 37° ENE 12:04:37 10° SE daylight
05 Aug - 13:40:35 10° WNW 13:45:11 21° WSW 13:49:52 10° SSW daylight
05 Aug - 22:56:28 10° S 23:02:17 41° ESE 23:07:56 10° NE visible
06 Aug - 00:44:14 10° WSW 00:48:12 18° WNW 00:52:07 10° NNW night (unlit)
06 Aug - 12:02:03 10° N 12:08:05 63° ENE 12:14:19 10° SSE daylight
06 Aug - 13:52:05 10° W 13:54:41 13° WSW 13:57:18 10° SW daylight
06 Aug - 23:05:24 10° SSW 23:11:36 69° ESE 23:17:35 10° NNE visible
07 Aug - 12:11:11 10° NNW 12:17:20 80° WSW 12:23:40 10° SSE daylight
07 Aug - 21:33:24 10° SE 21:34:11 10° ESE 21:34:57 10° ESE visible
07 Aug - 23:14:40 10° SSW 23:20:52 73° WNW 23:26:51 10° NNE visible
08 Aug - 10:37:17 10° NE 10:40:46 16° ENE 10:44:18 10° ESE daylight
08 Aug - 12:20:44 10° NW 12:26:38 48° WSW 12:32:44 10° S daylight
08 Aug - 21:39:36 10° SSE 21:43:42 18° ESE 21:47:44 10° ENE visible
08 Aug - 23:24:15 10° SW 23:30:04 43° WNW 23:35:41 10° N visible
09 Aug - 10:44:51 10° NNE 10:49:53 27° ENE 10:55:03 10° SE daylight
09 Aug - 12:30:43 10° NW 12:36:00 29° WSW 12:41:26 10° S daylight
09 Aug - 21:47:48 10° S 21:53:09 30° ESE 21:58:20 10° NE visible
09 Aug - 23:34:18 10° SW 23:39:14 25° WNW 23:44:02 10° NNW visible
